[Iaude] MPEC C13: 2024 BV4 [a=2.69,e=0.68,i=6.1,H=23.3]

mpec at marsden.cfa.harvard.edu mpec at marsden.cfa.harvard.edu
Thu Feb 1 15:49:47 EST 2024


M.P.E.C. 2024-C13                              Issued 2024 February 1, 20:47 UT

     The Minor Planet Electronic Circulars contain information on unusual
         minor planets, routine data on comets and natural satellites,
         and occasional editorial announcements.  They are published
    on behalf of Division F of the International Astronomical Union by the
          Minor Planet Center, Smithsonian Astrophysical Observatory,
                          Cambridge, MA 02138, U.S.A.
			  
             Prepared using the Tamkin Foundation Computer Network

                              MPC at CFA.HARVARD.EDU
            URL https://www.minorplanetcenter.net/    ISSN 1523-6714

                                    2024 BV4                                    


Observations:
     K24B04V*1C2024 01 31.23328707 53 14.204+51 12 05.58         20.45GVEC013G96
     K24B04V 1C2024 01 31.23856107 53 16.598+51 11 42.00         21.09GVEC013G96
     K24B04V 1C2024 01 31.24910207 53 21.340+51 10 55.85         20.52GVEC013G96
     K24B04V KC2024 01 31.33939907 54 01.526+51 04 12.86         20.41GVEC013I52
     K24B04V KC2024 01 31.34073607 54 02.138+51 04 06.89         20.44GVEC013I52
     K24B04V KC2024 01 31.34206307 54 02.740+51 04 00.77         20.07GVEC013I52
     K24B04V KC2024 01 31.34339707 54 03.362+51 03 54.86         20.24GVEC013I52
     K24B04V KC2024 01 31.85986207 58 02.67 +50 26 20.7          20.7 GVEC013L06
     K24B04V KC2024 01 31.86127207 58 03.26 +50 26 14.8          20.4 GVEC013L06
     K24B04V KC2024 01 31.86268207 58 03.86 +50 26 08.8          20.5 GVEC013L06
     K24B04V KC2024 02 01.14885708 00 05.93 +50 06 11.0          20.7 GVEC013H21
     K24B04V KC2024 02 01.15445008 00 08.12 +50 05 48.3          21.0 GVEC013H21
     K24B04V KC2024 02 01.15864508 00 09.73 +50 05 30.7                VEC013H21
     K24B04V 1C2024 02 01.83696 08 04 39.50 +49 19 19.8          20.9 VXEC013033
     K24B04V 1C2024 02 01.83812 08 04 39.89 +49 19 15.6          20.6 VXEC013033
     K24B04V 1C2024 02 01.83927 08 04 40.32 +49 19 11.0          20.4 VXEC013033

Observer details:
033 Karl Schwarzschild Observatory, Tautenburg.  Observers S. Melnikov, C.
    Hogner, F. Ludwig, M. Hartmann, B. Stecklum.  Measurer B. Stecklum.
    1.34-m f/3 Schmidt + CCD.
G96 Mt. Lemmon Survey.  Observer J. K. Hogan.  Measurers T. Beuden, V. F.
    Carvajal, D. Fay, J. B. Fazekas, D. C. Fuls, A. R. Gibbs, A. D. Grauer, H.
    Groeller, J. K. Hogan, R. A. Kowalski, S. M. Larson, G. J. Leonard, D.
    Rankin, R. L. Seaman, F. C. Shelly, K. W. Wierzchos.  1.5-m reflector +
    10K CCD.
H21 Astronomical Research Observatory, Westfield.  Observer R. Holmes.
    Measurers T. Linder, R. Holmes, L. Horn.  0.76-m f/3.0 astrograph + CCD.
I52 Steward Observatory, Mt. Lemmon Station.  Observer R. A. Kowalski.
    Measurers E. C. Beshore, D. Fay, J. B. Fazekas, D. C. Fuls, A. R. Gibbs,
    A. D. Grauer, H. Groeller, J. K. Hogan, R. A. Kowalski, S. M. Larson, G.
    J. Leonard, D. Rankin, R. L. Seaman, F. C. Shelly, K. W. Wierzchos.  1.0-m
    prime focus + CCD.
L06 Sormano 2 Observatory, Bellagio Via Lattea.  Observers E. Valli, G.
    Ventre.  Measurer P. Sicoli.  0.5-m f/6.8 reflector + CCD.

Orbital elements:
2024 BV4                                                 Earth MOID = 0.0383 AU
Epoch 2023 Sept. 13.0 TT = JDT 2460200.5                MPC                     
M 339.38770              (2000.0)            P               Q                  
n   0.22382022     Peri.  333.83566     +0.44870044     -0.88740590             
a   2.6866010      Node    89.34542     +0.83736679     +0.37613988             
e   0.6841919      Incl.    6.06958     +0.31222552     +0.26651370             
P   4.40           H   23.30          G   0.15           U   9                  
Residuals in seconds of arc
240131 G96  0.1-  0.2+    240131 I52  0.3+  0.0     240201 H21  0.2-  0.2-
240131 G96  0.1+  0.2-    240131 L06  0.2-  0.1+    240201 033  0.3+  0.1-
240131 G96  0.2+  0.0     240131 L06  0.1-  0.0     240201 033  0.0   0.2+
240131 I52  0.2-  0.1-    240131 L06  0.1+  0.1-    240201 033  0.2+  0.1+
240131 I52  0.1-  0.0     240201 H21  0.1+  0.1+
240131 I52  0.1+  0.1-    240201 H21  0.1+  0.2+

Ephemeris:
2024 BV4                 a,e,i = 2.69, 0.68, 6                   q = 0.8485
Date    TT    R. A. (2000) Decl.     Delta      r    Elong.  Phase     V
2024 01 02    22 15 08.3 -08 24 58   0.1539  0.8967    52.0   120.3    23.9
...
2024 01 17    00 45 58.2 +46 41 57   0.06868 0.9915    94.5    81.6    20.3
...
2024 01 25    06 17 58.5 +60 18 08   0.1004  1.0555   133.1    43.0    20.1
...
2024 01 31    07 51 17.6 +51 29 19   0.1469  1.1076   144.2    31.4    20.7
2024 02 01    07 59 00.8 +50 16 30   0.1555  1.1165   145.3    30.2    20.8
2024 02 02    08 05 37.9 +49 08 47   0.1642  1.1255   146.2    29.2    20.9
...
2024 02 08    08 31 18.7 +43 48 17   0.2198  1.1809   149.4    25.1    21.5
...
2024 02 16    08 48 40.3 +39 04 24   0.3009  1.2570   149.8    23.3    22.3
...
2024 03 02    09 06 56.4 +33 22 37   0.4741  1.4037   144.3    24.3    23.5

A. U. Tomatic                (C) Copyright 2024 MPC           M.P.E.C. 2024-C13





More information about the Iaude mailing list